Regional Weather Roundup
Issued by NWS

Home | Current Version | Previous Version | Graphics & Text | Print | Product List | Glossary On
Versions: 1 2 3 4 5 6 7 8 9 10 11 12 13 14 15 16 17 18 19 20 21 22 23 24 25 26 27 28 29 30 31 32 33 34 35 36 37 38 39 40 41 42 43 44 45 46 47 48 49 50
685
ASUS43 KIND 241909
RWRIN

WEATHER ROUNDUP FOR INDIANA
NATIONAL WEATHER SERVICE INDIANAPOLIS IN
200 PM EST SAT FEB 24 2018

NOTE: "FAIR" INDICATES FEW OR NO CLOUDS BELOW 12,000 FEET WITH NO
SIGNIFICANT WEATHER AND/OR OBSTRUCTIONS TO VISIBILITY.

* - STATION DOES NOT REPORT WEATHER SUCH AS PRECIPITATION OR FOG.

+ - STATION NOT QUALITY CONTROLLED BY THE NATIONAL WEATHER SERVICE.
    USE DATA WITH CAUTION...ESPECIALLY DEWPOINT AND RELATIVE
    HUMIDITY OBSERVATIONS.

INZ001>003-010>013-019-020-242000-
NORTHWEST INDIANA

CITY           SKY/WX    TMP DP  RH WIND       PRES   REMARKS
GARY /AIRPORT/ CLOUDY    45  37  76 SE14      30.00F
LA PORTE +     CLOUDY    41  37  86 E20       30.00F
MICHIGAN CITY+ CLOUDY    43  36  75 E8        30.00F
MONTICELLO +   CLOUDY    46  43  89 SE13      29.95F
RENSSELAER +   CLOUDY    45  39  81 E14       29.96F
VALPARAISO     CLOUDY    43  38  82 E15       29.99F

$$

LMZ046-743>745-242000-
SOUTHERN LAKE MICHIGAN

STATION/POSITION TIME  TEMP    WIND        PRES    WAVE
                       AIR SEA DIR/SP/G            HT
                 (UTC) (F)     (DEG/KT/KT) (MB)    (FT)
BURNS HARBOR     1840   42     110/ 11/ 15 1016.6F
MICHIGAN CITY    1840   42     100/ 14/ 17   N/A

$$

INZ004-005-014>016-021>024-242000-
NORTH CENTRAL INDIANA

CITY           SKY/WX    TMP DP  RH WIND       PRES   REMARKS
ELKHART        CLOUDY    41  36  81 E12       30.04F
GOSHEN         CLOUDY    41  36  82 E15       30.04F
LOGANSPORT +   CLOUDY    45  43  93 E15       29.98F
PERU/GRISSOM   PTSUNNY   46  46 100 E15       29.97F
ROCHESTER +    CLOUDY    45  43  93 E17       30.00F
SOUTH BEND     CLOUDY    40  35  83 E16G23    30.04F WCI  31
WARSAW +       CLOUDY    41  37  87 N12       30.03F

$$

INZ006>009-017-018-025>027-242000-
NORTHEAST INDIANA

CITY           SKY/WX    TMP DP  RH WIND       PRES   REMARKS
AUBURN +       CLOUDY    39  37  93 E9G17     30.06F WCI  33
FORT WAYNE     CLOUDY    42  40  92 E18       30.05F
HUNTINGTON +   CLOUDY    42  41  97 E13       30.02F
KENDALLVILLE + CLOUDY    39  37  91 E9G17     30.05F WCI  33

$$

INZ028-029-035-036-043>045-051>053-242000-
WEST CENTRAL INDIANA

CITY           SKY/WX    TMP DP  RH WIND       PRES   REMARKS
CRAWFORDSVL +  CLOUDY    46  46 100 E13         N/A
GREENCASTLE +  CLOUDY    48  46  93 E12       29.94F
LAFAYETTE      LGT RAIN  46  44  93 E15       29.94F
TERRE HAUTE    LGT RAIN  51  49  92 E8        29.92F

$$

INZ030>032-037>040-046>048-054>057-064-065-242000-
CENTRAL INDIANA

CITY           SKY/WX    TMP DP  RH WIND       PRES   REMARKS
ANDERSON       CLOUDY    63  43  48 MISG      29.98
COLUMBUS       CLOUDY    50 N/A N/A SE7       29.96F
FISHERS *+     CLOUDY    48  48 100 E9        29.97F
GREENWOOD *+   CLOUDY    47 -43   2 E7        29.97F
INDIANAPOLIS   LGT RAIN  48  47  96 E15       29.95F
-EAGLE CREEK   CLOUDY    50  46  86 E14G20    29.95F
KOKOMO +       CLOUDY    46  43  89 E16       29.98F
MARION +       CLOUDY    44  44 100 E14G22    29.99F
MT COMFORT *+  CLOUDY    48  48 100 E14       29.97F
SHELBYVILLE    LGT RAIN  51  47  86 E10       29.96F
ZIONSVILLE +   CLOUDY    46  45  97 E13       29.97F

$$

INZ033-034-041-042-049-050-058-059-242000-
EAST CENTRAL INDIANA

CITY           SKY/WX    TMP DP  RH WIND       PRES   REMARKS
MUNCIE         CLOUDY    48  45  89 E14       29.99F
RICHMOND +     CLOUDY    46  46 100 E15G23    29.99F

$$

INZ060-061-067>069-081>083-085>088-242000-
SOUTHWEST INDIANA

CITY           SKY/WX    TMP DP  RH WIND       PRES   REMARKS
EVANSVILLE     LGT RAIN  53  53 100 E7        29.89F FOG
HUNTINGBURG +  RAIN      53  52  96 SE14      29.91F FOG
WASHINGTON +   CLOUDY    55  53  91 SE15      29.90F

$$

INZ062-063-066-070>080-084-089>092-242000-
SOUTH CENTRAL AND SOUTHEAST INDIANA

CITY           SKY/WX    TMP DP  RH WIND       PRES   REMARKS
BATESVILLE +   CLOUDY    48  48 100 MISG      29.97F
BEDFORD +      RAIN      52  48  87 SE8       29.92F
BLOOMINGTON    CLOUDY    51  49  92 E9        29.92F
FRENCH LICK *+ CLOUDY    52 N/A N/A E8        29.92F
MADISON *+     CLOUDY    52  50  93 E9        29.97F
NORTH VERNON + CLOUDY    50  48  93 E9        29.96F
SEYMOUR +      CLOUDY    54  50  87 SE8       29.94F

$$





USA.gov is the U.S. government's official web portal to all federal, state and local government web resources and services.